Data supplied by UK-AIR on 24/6/2011
All Data GMT hour ending 
Status: R =Ratified P=Provisional,P*=As supplied
,,Grangemouth Moray,,,,,,,,,,,,,,,,,,,,,,,
Date,time,"Nitric oxide",status,unit,"Nitrogen dioxide",status,unit,"Nitrogen oxides as nitrogen dioxide",status,unit
 
01-01-2010,01:00,10,R,ugm-3,63,R,ugm-3,78,R,ugm-3
01-01-2010,02:00,30,R,ugm-3,73,R,ugm-3,118,R,ugm-3
01-01-2010,03:00,18,R,ugm-3,63,R,ugm-3,90,R,ugm-3
01-01-2010,04:00,3,R,ugm-3,61,R,ugm-3,65,R,ugm-3
01-01-2010,05:00,10,R,ugm-3,69,R,ugm-3,84,R,ugm-3
01-01-2010,06:00,5,R,ugm-3,69,R,ugm-3,76,R,ugm-3
01-01-2010,07:00,5,R,ugm-3,67,R,ugm-3,74,R,ugm-3
01-01-2010,08:00,1,R,ugm-3,42,R,ugm-3,44,R,ugm-3
01-01-2010,09:00,3,R,ugm-3,25,R,ugm-3,29,R,ugm-3
01-01-2010,10:00,3,R,ugm-3,15,R,ugm-3,19,R,ugm-3
01-01-2010,11:00,3,R,ugm-3,13,R,ugm-3,17,R,ugm-3
01-01-2010,12:00,1,R,ugm-3,13,R,ugm-3,15,R,ugm-3
01-01-2010,13:00,1,R,ugm-3,8,R,ugm-3,10,R,ugm-3
01-01-2010,14:00,1,R,ugm-3,11,R,ugm-3,13,R,ugm-3
01-01-2010,15:00,1,R,ugm-3,11,R,ugm-3,13,R,ugm-3
01-01-2010,16:00,1,R,ugm-3,27,R,ugm-3,29,R,ugm-3
01-01-2010,17:00,5,R,ugm-3,34,R,ugm-3,42,R,ugm-3
01-01-2010,18:00,1,R,ugm-3,11,R,ugm-3,13,R,ugm-3
01-01-2010,19:00,0,R,ugm-3,13,R,ugm-3,13,R,ugm-3
01-01-2010,20:00,1,R,ugm-3,27,R,ugm-3,29,R,ugm-3
01-01-2010,21:00,0,R,ugm-3,25,R,ugm-3,25,R,ugm-3
01-01-2010,22:00,0,R,ugm-3,13,R,ugm-3,13,R,ugm-3
01-01-2010,23:00,0,R,ugm-3,17,R,ugm-3,17,R,ugm-3
01-01-2010,24:00,0,R,ugm-3,27,R,ugm-3,27,R,ugm-3
02-01-2010,01:00,0,R,ugm-3,13,R,ugm-3,13,R,ugm-3
02-01-2010,02:00,0,R,ugm-3,13,R,ugm-3,13,R,ugm-3
02-01-2010,03:00,0,R,ugm-3,11,R,ugm-3,11,R,ugm-3
02-01-2010,04:00,0,R,ugm-3,17,R,ugm-3,17,R,ugm-3
02-01-2010,05:00,0,R,ugm-3,23,R,ugm-3,23,R,ugm-3
02-01-2010,06:00,1,R,ugm-3,38,R,ugm-3,40,R,ugm-3
02-01-2010,07:00,5,R,ugm-3,48,R,ugm-3,55,R,ugm-3
02-01-2010,08:00,1,R,ugm-3,21,R,ugm-3,23,R,ugm-3
02-01-2010,09:00,5,R,ugm-3,21,R,ugm-3,29,R,ugm-3
02-01-2010,10:00,3,R,ugm-3,10,R,ugm-3,13,R,ugm-3
02-01-2010,11:00,9,R,ugm-3,17,R,ugm-3,31,R,ugm-3
02-01-2010,12:00,8,R,ugm-3,13,R,ugm-3,25,R,ugm-3
02-01-2010,13:00,4,R,ugm-3,8,R,ugm-3,13,R,ugm-3
02-01-2010,14:00,6,R,ugm-3,10,R,ugm-3,19,R,ugm-3
02-01-2010,15:00,8,R,ugm-3,23,R,ugm-3,34,R,ugm-3
02-01-2010,16:00,3,R,ugm-3,17,R,ugm-3,21,R,ugm-3
02-01-2010,17:00,3,R,ugm-3,15,R,ugm-3,19,R,ugm-3
02-01-2010,18:00,1,R,ugm-3,11,R,ugm-3,13,R,ugm-3
02-01-2010,19:00,3,R,ugm-3,21,R,ugm-3,25,R,ugm-3
02-01-2010,20:00,3,R,ugm-3,11,R,ugm-3,15,R,ugm-3
02-01-2010,21:00,3,R,ugm-3,17,R,ugm-3,21,R,ugm-3
02-01-2010,22:00,5,R,ugm-3,11,R,ugm-3,19,R,ugm-3
02-01-2010,23:00,4,R,ugm-3,10,R,ugm-3,15,R,ugm-3
02-01-2010,24:00,5,R,ugm-3,27,R,ugm-3,34,R,ugm-3
03-01-2010,01:00,6,R,ugm-3,27,R,ugm-3,36,R,ugm-3
03-01-2010,02:00,1,R,ugm-3,21,R,ugm-3,23,R,ugm-3
03-01-2010,03:00,1,R,ugm-3,13,R,ugm-3,15,R,ugm-3
03-01-2010,04:00,1,R,ugm-3,17,R,ugm-3,19,R,ugm-3
03-01-2010,05:00,1,R,ugm-3,11,R,ugm-3,13,R,ugm-3
03-01-2010,06:00,1,R,ugm-3,17,R,ugm-3,19,R,ugm-3
03-01-2010,07:00,8,R,ugm-3,34,R,ugm-3,46,R,ugm-3
03-01-2010,08:00,6,R,ugm-3,38,R,ugm-3,48,R,ugm-3
03-01-2010,09:00,24,R,ugm-3,46,R,ugm-3,82,R,ugm-3
03-01-2010,10:00,29,R,ugm-3,40,R,ugm-3,84,R,ugm-3
03-01-2010,11:00,24,R,ugm-3,34,R,ugm-3,71,R,ugm-3
03-01-2010,12:00,50,R,ugm-3,46,R,ugm-3,122,R,ugm-3
03-01-2010,13:00,26,R,ugm-3,40,R,ugm-3,80,R,ugm-3
03-01-2010,14:00,14,R,ugm-3,38,R,ugm-3,59,R,ugm-3
03-01-2010,15:00,9,R,ugm-3,44,R,ugm-3,57,R,ugm-3
03-01-2010,16:00,25,R,ugm-3,59,R,ugm-3,97,R,ugm-3
03-01-2010,17:00,68,R,ugm-3,67,R,ugm-3,170,R,ugm-3
03-01-2010,18:00,70,R,ugm-3,73,R,ugm-3,180,R,ugm-3
03-01-2010,19:00,90,R,ugm-3,69,R,ugm-3,206,R,ugm-3
03-01-2010,20:00,85,R,ugm-3,67,R,ugm-3,197,R,ugm-3
03-01-2010,21:00,100,R,ugm-3,71,R,ugm-3,223,R,ugm-3
03-01-2010,22:00,100,R,ugm-3,69,R,ugm-3,222,R,ugm-3
03-01-2010,23:00,83,R,ugm-3,65,R,ugm-3,191,R,ugm-3
03-01-2010,24:00,80,R,ugm-3,65,R,ugm-3,187,R,ugm-3
04-01-2010,01:00,61,R,ugm-3,61,R,ugm-3,155,R,ugm-3
04-01-2010,02:00,46,R,ugm-3,57,R,ugm-3,128,R,ugm-3
04-01-2010,03:00,41,R,ugm-3,55,R,ugm-3,118,R,ugm-3
04-01-2010,04:00,30,R,ugm-3,53,R,ugm-3,99,R,ugm-3
04-01-2010,05:00,24,R,ugm-3,52,R,ugm-3,88,R,ugm-3
04-01-2010,06:00,33,R,ugm-3,53,R,ugm-3,103,R,ugm-3
04-01-2010,07:00,53,R,ugm-3,57,R,ugm-3,138,R,ugm-3
04-01-2010,08:00,46,R,ugm-3,57,R,ugm-3,128,R,ugm-3
04-01-2010,09:00,59,R,ugm-3,57,R,ugm-3,147,R,ugm-3
04-01-2010,10:00,73,R,ugm-3,57,R,ugm-3,168,R,ugm-3
04-01-2010,11:00,79,R,ugm-3,57,R,ugm-3,178,R,ugm-3
04-01-2010,12:00,80,R,ugm-3,55,R,ugm-3,178,R,ugm-3
04-01-2010,13:00,81,R,ugm-3,59,R,ugm-3,183,R,ugm-3
04-01-2010,14:00,66,R,ugm-3,61,R,ugm-3,162,R,ugm-3
04-01-2010,15:00,61,R,ugm-3,65,R,ugm-3,159,R,ugm-3
04-01-2010,16:00,61,R,ugm-3,73,R,ugm-3,166,R,ugm-3
04-01-2010,17:00,91,R,ugm-3,78,R,ugm-3,218,R,ugm-3
04-01-2010,18:00,28,R,ugm-3,61,R,ugm-3,103,R,ugm-3
04-01-2010,19:00,1,R,ugm-3,40,R,ugm-3,42,R,ugm-3
04-01-2010,20:00,21,R,ugm-3,65,R,ugm-3,97,R,ugm-3
04-01-2010,21:00,34,R,ugm-3,78,R,ugm-3,130,R,ugm-3
04-01-2010,22:00,54,R,ugm-3,82,R,ugm-3,164,R,ugm-3
04-01-2010,23:00,64,R,ugm-3,82,R,ugm-3,180,R,ugm-3
04-01-2010,24:00,45,R,ugm-3,76,R,ugm-3,145,R,ugm-3
05-01-2010,01:00,20,R,ugm-3,52,R,ugm-3,82,R,ugm-3
05-01-2010,02:00,0,R,ugm-3,31,R,ugm-3,31,R,ugm-3
05-01-2010,03:00,0,R,ugm-3,19,R,ugm-3,19,R,ugm-3
05-01-2010,04:00,0,R,ugm-3,13,R,ugm-3,13,R,ugm-3
05-01-2010,05:00,0,R,ugm-3,17,R,ugm-3,17,R,ugm-3
05-01-2010,06:00,3,R,ugm-3,52,R,ugm-3,55,R,ugm-3
05-01-2010,07:00,15,R,ugm-3,82,R,ugm-3,105,R,ugm-3
05-01-2010,08:00,11,R,ugm-3,76,R,ugm-3,94,R,ugm-3
05-01-2010,09:00,48,R,ugm-3,92,R,ugm-3,164,R,ugm-3
05-01-2010,10:00,74,R,ugm-3,92,R,ugm-3,204,R,ugm-3
05-01-2010,11:00,24,R,ugm-3,55,R,ugm-3,92,R,ugm-3
05-01-2010,12:00,15,R,ugm-3,46,R,ugm-3,69,R,ugm-3
05-01-2010,13:00,8,R,ugm-3,34,R,ugm-3,46,R,ugm-3
05-01-2010,14:00,6,R,ugm-3,34,R,ugm-3,44,R,ugm-3
05-01-2010,15:00,5,R,ugm-3,40,R,ugm-3,48,R,ugm-3
05-01-2010,16:00,5,R,ugm-3,50,R,ugm-3,57,R,ugm-3
05-01-2010,17:00,3,R,ugm-3,38,R,ugm-3,42,R,ugm-3
05-01-2010,18:00,1,R,ugm-3,13,R,ugm-3,15,R,ugm-3
05-01-2010,19:00,1,R,ugm-3,19,R,ugm-3,21,R,ugm-3
05-01-2010,20:00,1,R,ugm-3,10,R,ugm-3,11,R,ugm-3
05-01-2010,21:00,1,R,ugm-3,17,R,ugm-3,19,R,ugm-3
05-01-2010,22:00,4,R,ugm-3,40,R,ugm-3,46,R,ugm-3
05-01-2010,23:00,1,R,ugm-3,15,R,ugm-3,17,R,ugm-3
05-01-2010,24:00,0,R,ugm-3,17,R,ugm-3,17,R,ugm-3
06-01-2010,01:00,1,R,ugm-3,17,R,ugm-3,19,R,ugm-3
06-01-2010,02:00,0,R,ugm-3,8,R,ugm-3,8,R,ugm-3
06-01-2010,03:00,1,R,ugm-3,17,R,ugm-3,19,R,ugm-3
06-01-2010,04:00,0,R,ugm-3,10,R,ugm-3,10,R,ugm-3
06-01-2010,05:00,3,R,ugm-3,15,R,ugm-3,19,R,ugm-3
06-01-2010,06:00,1,R,ugm-3,11,R,ugm-3,13,R,ugm-3
06-01-2010,07:00,3,R,ugm-3,17,R,ugm-3,21,R,ugm-3
06-01-2010,08:00,6,R,ugm-3,44,R,ugm-3,53,R,ugm-3
06-01-2010,09:00,6,R,ugm-3,27,R,ugm-3,36,R,ugm-3
06-01-2010,10:00,20,R,ugm-3,53,R,ugm-3,84,R,ugm-3
06-01-2010,11:00,9,R,ugm-3,23,R,ugm-3,36,R,ugm-3
06-01-2010,12:00,5,R,ugm-3,19,R,ugm-3,27,R,ugm-3
06-01-2010,13:00,6,R,ugm-3,27,R,ugm-3,36,R,ugm-3
06-01-2010,14:00,5,R,ugm-3,27,R,ugm-3,34,R,ugm-3
06-01-2010,15:00,8,R,ugm-3,46,R,ugm-3,57,R,ugm-3
06-01-2010,16:00,13,R,ugm-3,73,R,ugm-3,92,R,ugm-3
06-01-2010,17:00,26,R,ugm-3,88,R,ugm-3,128,R,ugm-3
06-01-2010,18:00,21,R,ugm-3,80,R,ugm-3,113,R,ugm-3
06-01-2010,19:00,1,R,ugm-3,42,R,ugm-3,44,R,ugm-3
06-01-2010,20:00,3,R,ugm-3,53,R,ugm-3,57,R,ugm-3
06-01-2010,21:00,4,R,ugm-3,69,R,ugm-3,74,R,ugm-3
06-01-2010,22:00,29,R,ugm-3,86,R,ugm-3,130,R,ugm-3
06-01-2010,23:00,18,R,ugm-3,76,R,ugm-3,103,R,ugm-3
06-01-2010,24:00,31,R,ugm-3,80,R,ugm-3,128,R,ugm-3
07-01-2010,01:00,20,R,ugm-3,71,R,ugm-3,101,R,ugm-3
07-01-2010,02:00,15,R,ugm-3,71,R,ugm-3,94,R,ugm-3
07-01-2010,03:00,14,R,ugm-3,71,R,ugm-3,92,R,ugm-3
07-01-2010,04:00,49,R,ugm-3,76,R,ugm-3,151,R,ugm-3
07-01-2010,05:00,40,R,ugm-3,73,R,ugm-3,134,R,ugm-3
07-01-2010,06:00,59,R,ugm-3,78,R,ugm-3,168,R,ugm-3
07-01-2010,07:00,96,R,ugm-3,82,R,ugm-3,229,R,ugm-3
07-01-2010,08:00,171,R,ugm-3,101,R,ugm-3,363,R,ugm-3
07-01-2010,09:00,306,R,ugm-3,130,R,ugm-3,598,R,ugm-3
07-01-2010,10:00,200,R,ugm-3,109,R,ugm-3,414,R,ugm-3
07-01-2010,11:00,124,R,ugm-3,90,R,ugm-3,279,R,ugm-3
07-01-2010,12:00,114,R,ugm-3,90,R,ugm-3,264,R,ugm-3
07-01-2010,13:00,138,R,ugm-3,99,R,ugm-3,309,R,ugm-3
07-01-2010,14:00,173,R,ugm-3,113,R,ugm-3,376,R,ugm-3
07-01-2010,15:00,150,R,ugm-3,105,R,ugm-3,334,R,ugm-3
07-01-2010,16:00,194,R,ugm-3,117,R,ugm-3,413,R,ugm-3
07-01-2010,17:00,286,R,ugm-3,134,R,ugm-3,571,R,ugm-3
07-01-2010,18:00,235,R,ugm-3,134,R,ugm-3,493,R,ugm-3
07-01-2010,19:00,246,R,ugm-3,136,R,ugm-3,512,R,ugm-3
07-01-2010,20:00,153,R,ugm-3,109,R,ugm-3,342,R,ugm-3
07-01-2010,21:00,119,R,ugm-3,101,R,ugm-3,283,R,ugm-3
07-01-2010,22:00,136,R,ugm-3,103,R,ugm-3,311,R,ugm-3
07-01-2010,23:00,113,R,ugm-3,99,R,ugm-3,271,R,ugm-3
07-01-2010,24:00,144,R,ugm-3,99,R,ugm-3,319,R,ugm-3
08-01-2010,01:00,134,R,ugm-3,96,R,ugm-3,300,R,ugm-3
08-01-2010,02:00,134,R,ugm-3,94,R,ugm-3,298,R,ugm-3
08-01-2010,03:00,140,R,ugm-3,88,R,ugm-3,302,R,ugm-3
08-01-2010,04:00,89,R,ugm-3,71,R,ugm-3,206,R,ugm-3
08-01-2010,05:00,119,R,ugm-3,78,R,ugm-3,260,R,ugm-3
08-01-2010,06:00,121,R,ugm-3,86,R,ugm-3,271,R,ugm-3
08-01-2010,07:00,158,R,ugm-3,92,R,ugm-3,332,R,ugm-3
08-01-2010,08:00,143,R,ugm-3,94,R,ugm-3,311,R,ugm-3
08-01-2010,09:00,163,R,ugm-3,97,R,ugm-3,346,R,ugm-3
08-01-2010,10:00,,,,,,,,,
08-01-2010,11:00,,,,,,,,,
08-01-2010,12:00,,,,,,,,,
08-01-2010,13:00,81,R,ugm-3,71,R,ugm-3,195,R,ugm-3
08-01-2010,14:00,83,R,ugm-3,73,R,ugm-3,199,R,ugm-3
08-01-2010,15:00,108,R,ugm-3,82,R,ugm-3,246,R,ugm-3
08-01-2010,16:00,154,R,ugm-3,97,R,ugm-3,332,R,ugm-3
08-01-2010,17:00,188,R,ugm-3,107,R,ugm-3,393,R,ugm-3
08-01-2010,18:00,189,R,ugm-3,109,R,ugm-3,397,R,ugm-3
08-01-2010,19:00,196,R,ugm-3,111,R,ugm-3,411,R,ugm-3
08-01-2010,20:00,244,R,ugm-3,120,R,ugm-3,493,R,ugm-3
08-01-2010,21:00,193,R,ugm-3,113,R,ugm-3,407,R,ugm-3
08-01-2010,22:00,173,R,ugm-3,105,R,ugm-3,369,R,ugm-3
08-01-2010,23:00,110,R,ugm-3,94,R,ugm-3,262,R,ugm-3
08-01-2010,24:00,78,R,ugm-3,88,R,ugm-3,206,R,ugm-3
09-01-2010,01:00,86,R,ugm-3,86,R,ugm-3,218,R,ugm-3
09-01-2010,02:00,85,R,ugm-3,82,R,ugm-3,212,R,ugm-3
09-01-2010,03:00,86,R,ugm-3,82,R,ugm-3,214,R,ugm-3
09-01-2010,04:00,88,R,ugm-3,82,R,ugm-3,216,R,ugm-3
09-01-2010,05:00,119,R,ugm-3,86,R,ugm-3,267,R,ugm-3
09-01-2010,06:00,124,R,ugm-3,86,R,ugm-3,275,R,ugm-3
09-01-2010,07:00,134,R,ugm-3,88,R,ugm-3,292,R,ugm-3
09-01-2010,08:00,153,R,ugm-3,90,R,ugm-3,323,R,ugm-3
09-01-2010,09:00,183,R,ugm-3,94,R,ugm-3,372,R,ugm-3
09-01-2010,10:00,193,R,ugm-3,97,R,ugm-3,392,R,ugm-3
09-01-2010,11:00,114,R,ugm-3,82,R,ugm-3,256,R,ugm-3
09-01-2010,12:00,43,R,ugm-3,67,R,ugm-3,132,R,ugm-3
09-01-2010,13:00,31,R,ugm-3,61,R,ugm-3,109,R,ugm-3
09-01-2010,14:00,9,R,ugm-3,48,R,ugm-3,61,R,ugm-3
09-01-2010,15:00,46,R,ugm-3,69,R,ugm-3,139,R,ugm-3
09-01-2010,16:00,70,R,ugm-3,76,R,ugm-3,183,R,ugm-3
09-01-2010,17:00,33,R,ugm-3,73,R,ugm-3,122,R,ugm-3
09-01-2010,18:00,16,R,ugm-3,69,R,ugm-3,94,R,ugm-3
09-01-2010,19:00,30,R,ugm-3,74,R,ugm-3,120,R,ugm-3
09-01-2010,20:00,30,R,ugm-3,65,R,ugm-3,111,R,ugm-3
09-01-2010,21:00,3,R,ugm-3,27,R,ugm-3,31,R,ugm-3
09-01-2010,22:00,1,R,ugm-3,31,R,ugm-3,32,R,ugm-3
09-01-2010,23:00,1,R,ugm-3,23,R,ugm-3,25,R,ugm-3
09-01-2010,24:00,0,R,ugm-3,15,R,ugm-3,15,R,ugm-3
10-01-2010,01:00,1,R,ugm-3,15,R,ugm-3,17,R,ugm-3
10-01-2010,02:00,3,R,ugm-3,23,R,ugm-3,27,R,ugm-3
10-01-2010,03:00,0,R,ugm-3,13,R,ugm-3,13,R,ugm-3
10-01-2010,04:00,0,R,ugm-3,11,R,ugm-3,11,R,ugm-3
10-01-2010,05:00,1,R,ugm-3,19,R,ugm-3,21,R,ugm-3
10-01-2010,06:00,1,R,ugm-3,17,R,ugm-3,19,R,ugm-3
10-01-2010,07:00,0,R,ugm-3,8,R,ugm-3,8,R,ugm-3
10-01-2010,08:00,1,R,ugm-3,11,R,ugm-3,13,R,ugm-3
10-01-2010,09:00,1,R,ugm-3,10,R,ugm-3,11,R,ugm-3
10-01-2010,10:00,8,R,ugm-3,36,R,ugm-3,48,R,ugm-3
10-01-2010,11:00,4,R,ugm-3,17,R,ugm-3,23,R,ugm-3
10-01-2010,12:00,4,R,ugm-3,15,R,ugm-3,21,R,ugm-3
10-01-2010,13:00,4,R,ugm-3,15,R,ugm-3,21,R,ugm-3
10-01-2010,14:00,5,R,ugm-3,19,R,ugm-3,27,R,ugm-3
10-01-2010,15:00,4,R,ugm-3,19,R,ugm-3,25,R,ugm-3
10-01-2010,16:00,5,R,ugm-3,23,R,ugm-3,31,R,ugm-3
10-01-2010,17:00,5,R,ugm-3,23,R,ugm-3,31,R,ugm-3
10-01-2010,18:00,5,R,ugm-3,21,R,ugm-3,29,R,ugm-3
10-01-2010,19:00,4,R,ugm-3,23,R,ugm-3,29,R,ugm-3
10-01-2010,20:00,5,R,ugm-3,21,R,ugm-3,29,R,ugm-3
10-01-2010,21:00,4,R,ugm-3,21,R,ugm-3,27,R,ugm-3
10-01-2010,22:00,4,R,ugm-3,21,R,ugm-3,27,R,ugm-3
10-01-2010,23:00,4,R,ugm-3,21,R,ugm-3,27,R,ugm-3
10-01-2010,24:00,3,R,ugm-3,17,R,ugm-3,21,R,ugm-3
11-01-2010,01:00,3,R,ugm-3,13,R,ugm-3,17,R,ugm-3
11-01-2010,02:00,4,R,ugm-3,17,R,ugm-3,23,R,ugm-3
11-01-2010,03:00,3,R,ugm-3,15,R,ugm-3,19,R,ugm-3
11-01-2010,04:00,4,R,ugm-3,15,R,ugm-3,21,R,ugm-3
11-01-2010,05:00,3,R,ugm-3,17,R,ugm-3,21,R,ugm-3
11-01-2010,06:00,4,R,ugm-3,21,R,ugm-3,27,R,ugm-3
11-01-2010,07:00,6,R,ugm-3,32,R,ugm-3,42,R,ugm-3
11-01-2010,08:00,8,R,ugm-3,38,R,ugm-3,50,R,ugm-3
11-01-2010,09:00,10,R,ugm-3,44,R,ugm-3,59,R,ugm-3
11-01-2010,10:00,13,R,ugm-3,48,R,ugm-3,67,R,ugm-3
11-01-2010,11:00,11,R,ugm-3,42,R,ugm-3,59,R,ugm-3
11-01-2010,12:00,13,R,ugm-3,40,R,ugm-3,59,R,ugm-3
11-01-2010,13:00,10,R,ugm-3,40,R,ugm-3,55,R,ugm-3
11-01-2010,14:00,6,R,ugm-3,27,R,ugm-3,36,R,ugm-3
11-01-2010,15:00,5,R,ugm-3,34,R,ugm-3,42,R,ugm-3
11-01-2010,16:00,8,R,ugm-3,44,R,ugm-3,55,R,ugm-3
11-01-2010,17:00,5,R,ugm-3,38,R,ugm-3,46,R,ugm-3
11-01-2010,18:00,8,R,ugm-3,42,R,ugm-3,53,R,ugm-3
11-01-2010,19:00,6,R,ugm-3,42,R,ugm-3,52,R,ugm-3
11-01-2010,20:00,3,R,ugm-3,36,R,ugm-3,40,R,ugm-3
11-01-2010,21:00,1,R,ugm-3,23,R,ugm-3,25,R,ugm-3
11-01-2010,22:00,5,R,ugm-3,27,R,ugm-3,34,R,ugm-3
11-01-2010,23:00,4,R,ugm-3,25,R,ugm-3,31,R,ugm-3
11-01-2010,24:00,4,R,ugm-3,31,R,ugm-3,36,R,ugm-3
12-01-2010,01:00,3,R,ugm-3,21,R,ugm-3,25,R,ugm-3
12-01-2010,02:00,3,R,ugm-3,19,R,ugm-3,23,R,ugm-3
12-01-2010,03:00,4,R,ugm-3,21,R,ugm-3,27,R,ugm-3
12-01-2010,04:00,4,R,ugm-3,23,R,ugm-3,29,R,ugm-3
12-01-2010,05:00,5,R,ugm-3,21,R,ugm-3,29,R,ugm-3
12-01-2010,06:00,9,R,ugm-3,32,R,ugm-3,46,R,ugm-3
12-01-2010,07:00,11,R,ugm-3,36,R,ugm-3,53,R,ugm-3
12-01-2010,08:00,15,R,ugm-3,40,R,ugm-3,63,R,ugm-3
12-01-2010,09:00,15,R,ugm-3,48,R,ugm-3,71,R,ugm-3
12-01-2010,10:00,18,R,ugm-3,48,R,ugm-3,74,R,ugm-3
12-01-2010,11:00,,,,,,,,,
12-01-2010,12:00,,,,,,,,,
12-01-2010,13:00,,,,,,,,,
12-01-2010,14:00,,,,,,,,,
12-01-2010,15:00,,,,,,,,,
12-01-2010,16:00,,,,,,,,,
12-01-2010,17:00,,,,,,,,,
12-01-2010,18:00,,,,,,,,,
12-01-2010,19:00,,,,,,,,,
12-01-2010,20:00,,,,,,,,,
12-01-2010,21:00,,,,,,,,,
12-01-2010,22:00,,,,,,,,,
12-01-2010,23:00,,,,,,,,,
12-01-2010,24:00,,,,,,,,,
13-01-2010,01:00,,,,,,,,,
13-01-2010,02:00,,,,,,,,,
13-01-2010,03:00,,,,,,,,,
13-01-2010,04:00,,,,,,,,,
13-01-2010,05:00,,,,,,,,,
13-01-2010,06:00,,,,,,,,,
13-01-2010,07:00,,,,,,,,,
13-01-2010,08:00,,,,,,,,,
13-01-2010,09:00,,,,,,,,,
13-01-2010,10:00,21,R,ugm-3,32,R,ugm-3,65,R,ugm-3
13-01-2010,11:00,24,R,ugm-3,34,R,ugm-3,71,R,ugm-3
13-01-2010,12:00,28,R,ugm-3,36,R,ugm-3,78,R,ugm-3
13-01-2010,13:00,18,R,ugm-3,31,R,ugm-3,57,R,ugm-3
13-01-2010,14:00,23,R,ugm-3,34,R,ugm-3,69,R,ugm-3
13-01-2010,15:00,24,R,ugm-3,36,R,ugm-3,73,R,ugm-3
13-01-2010,16:00,18,R,ugm-3,34,R,ugm-3,61,R,ugm-3
13-01-2010,17:00,16,R,ugm-3,34,R,ugm-3,59,R,ugm-3
13-01-2010,18:00,11,R,ugm-3,34,R,ugm-3,52,R,ugm-3
13-01-2010,19:00,10,R,ugm-3,32,R,ugm-3,48,R,ugm-3
13-01-2010,20:00,9,R,ugm-3,44,R,ugm-3,57,R,ugm-3
13-01-2010,21:00,10,R,ugm-3,50,R,ugm-3,65,R,ugm-3
13-01-2010,22:00,9,R,ugm-3,42,R,ugm-3,55,R,ugm-3
13-01-2010,23:00,8,R,ugm-3,40,R,ugm-3,52,R,ugm-3
13-01-2010,24:00,5,R,ugm-3,40,R,ugm-3,48,R,ugm-3
14-01-2010,01:00,9,R,ugm-3,38,R,ugm-3,52,R,ugm-3
14-01-2010,02:00,8,R,ugm-3,34,R,ugm-3,46,R,ugm-3
14-01-2010,03:00,5,R,ugm-3,31,R,ugm-3,38,R,ugm-3
14-01-2010,04:00,3,R,ugm-3,27,R,ugm-3,31,R,ugm-3
14-01-2010,05:00,3,R,ugm-3,32,R,ugm-3,36,R,ugm-3
14-01-2010,06:00,4,R,ugm-3,38,R,ugm-3,44,R,ugm-3
14-01-2010,07:00,26,R,ugm-3,40,R,ugm-3,80,R,ugm-3
14-01-2010,08:00,84,R,ugm-3,50,R,ugm-3,178,R,ugm-3
14-01-2010,09:00,151,R,ugm-3,65,R,ugm-3,296,R,ugm-3
14-01-2010,10:00,131,R,ugm-3,59,R,ugm-3,260,R,ugm-3
14-01-2010,11:00,60,R,ugm-3,42,R,ugm-3,134,R,ugm-3
14-01-2010,12:00,23,R,ugm-3,27,R,ugm-3,61,R,ugm-3
14-01-2010,13:00,,,,,,,,,
14-01-2010,14:00,20,R,ugm-3,34,R,ugm-3,65,R,ugm-3
14-01-2010,15:00,45,R,ugm-3,44,R,ugm-3,113,R,ugm-3
14-01-2010,16:00,69,R,ugm-3,50,R,ugm-3,155,R,ugm-3
14-01-2010,17:00,43,R,ugm-3,44,R,ugm-3,109,R,ugm-3
14-01-2010,18:00,63,R,ugm-3,48,R,ugm-3,143,R,ugm-3
14-01-2010,19:00,73,R,ugm-3,48,R,ugm-3,159,R,ugm-3
14-01-2010,20:00,148,R,ugm-3,69,R,ugm-3,294,R,ugm-3
14-01-2010,21:00,99,R,ugm-3,59,R,ugm-3,210,R,ugm-3
14-01-2010,22:00,41,R,ugm-3,53,R,ugm-3,117,R,ugm-3
14-01-2010,23:00,1,R,ugm-3,32,R,ugm-3,34,R,ugm-3
14-01-2010,24:00,4,R,ugm-3,38,R,ugm-3,44,R,ugm-3
15-01-2010,01:00,3,R,ugm-3,31,R,ugm-3,34,R,ugm-3
15-01-2010,02:00,1,R,ugm-3,27,R,ugm-3,29,R,ugm-3
15-01-2010,03:00,5,R,ugm-3,36,R,ugm-3,44,R,ugm-3
15-01-2010,04:00,9,R,ugm-3,42,R,ugm-3,55,R,ugm-3
15-01-2010,05:00,8,R,ugm-3,44,R,ugm-3,55,R,ugm-3
15-01-2010,06:00,4,R,ugm-3,46,R,ugm-3,52,R,ugm-3
15-01-2010,07:00,10,R,ugm-3,50,R,ugm-3,65,R,ugm-3
15-01-2010,08:00,14,R,ugm-3,52,R,ugm-3,73,R,ugm-3
15-01-2010,09:00,11,R,ugm-3,52,R,ugm-3,69,R,ugm-3
15-01-2010,10:00,14,R,ugm-3,57,R,ugm-3,78,R,ugm-3
15-01-2010,11:00,5,R,ugm-3,27,R,ugm-3,34,R,ugm-3
15-01-2010,12:00,6,R,ugm-3,27,R,ugm-3,36,R,ugm-3
15-01-2010,13:00,4,R,ugm-3,19,R,ugm-3,25,R,ugm-3
15-01-2010,14:00,4,R,ugm-3,23,R,ugm-3,29,R,ugm-3
15-01-2010,15:00,14,R,ugm-3,53,R,ugm-3,74,R,ugm-3
15-01-2010,16:00,9,R,ugm-3,44,R,ugm-3,57,R,ugm-3
15-01-2010,17:00,3,R,ugm-3,23,R,ugm-3,27,R,ugm-3
15-01-2010,18:00,1,R,ugm-3,13,R,ugm-3,15,R,ugm-3
15-01-2010,19:00,1,R,ugm-3,11,R,ugm-3,13,R,ugm-3
15-01-2010,20:00,1,R,ugm-3,8,R,ugm-3,10,R,ugm-3
15-01-2010,21:00,1,R,ugm-3,8,R,ugm-3,10,R,ugm-3
15-01-2010,22:00,1,R,ugm-3,19,R,ugm-3,21,R,ugm-3
15-01-2010,23:00,3,R,ugm-3,25,R,ugm-3,29,R,ugm-3
15-01-2010,24:00,1,R,ugm-3,31,R,ugm-3,32,R,ugm-3
16-01-2010,01:00,0,R,ugm-3,10,R,ugm-3,10,R,ugm-3
16-01-2010,02:00,1,R,ugm-3,21,R,ugm-3,23,R,ugm-3
16-01-2010,03:00,3,R,ugm-3,25,R,ugm-3,29,R,ugm-3
16-01-2010,04:00,1,R,ugm-3,15,R,ugm-3,17,R,ugm-3
16-01-2010,05:00,0,R,ugm-3,2,R,ugm-3,2,R,ugm-3
16-01-2010,06:00,0,R,ugm-3,2,R,ugm-3,2,R,ugm-3
16-01-2010,07:00,0,R,ugm-3,2,R,ugm-3,2,R,ugm-3
16-01-2010,08:00,0,R,ugm-3,4,R,ugm-3,4,R,ugm-3
16-01-2010,09:00,1,R,ugm-3,4,R,ugm-3,6,R,ugm-3
16-01-2010,10:00,3,R,ugm-3,4,R,ugm-3,8,R,ugm-3
16-01-2010,11:00,1,R,ugm-3,6,R,ugm-3,8,R,ugm-3
16-01-2010,12:00,1,R,ugm-3,8,R,ugm-3,10,R,ugm-3
16-01-2010,13:00,3,R,ugm-3,8,R,ugm-3,11,R,ugm-3
16-01-2010,14:00,3,R,ugm-3,10,R,ugm-3,13,R,ugm-3
16-01-2010,15:00,3,R,ugm-3,10,R,ugm-3,13,R,ugm-3
16-01-2010,16:00,1,R,ugm-3,11,R,ugm-3,13,R,ugm-3
16-01-2010,17:00,1,R,ugm-3,10,R,ugm-3,11,R,ugm-3
16-01-2010,18:00,3,R,ugm-3,13,R,ugm-3,17,R,ugm-3
16-01-2010,19:00,1,R,ugm-3,13,R,ugm-3,15,R,ugm-3
16-01-2010,20:00,4,R,ugm-3,23,R,ugm-3,29,R,ugm-3
16-01-2010,21:00,6,R,ugm-3,38,R,ugm-3,48,R,ugm-3
16-01-2010,22:00,5,R,ugm-3,38,R,ugm-3,46,R,ugm-3
16-01-2010,23:00,3,R,ugm-3,19,R,ugm-3,23,R,ugm-3
16-01-2010,24:00,1,R,ugm-3,8,R,ugm-3,10,R,ugm-3
17-01-2010,01:00,1,R,ugm-3,13,R,ugm-3,15,R,ugm-3
17-01-2010,02:00,1,R,ugm-3,13,R,ugm-3,15,R,ugm-3
17-01-2010,03:00,0,R,ugm-3,4,R,ugm-3,4,R,ugm-3
17-01-2010,04:00,0,R,ugm-3,2,R,ugm-3,2,R,ugm-3
17-01-2010,05:00,0,R,ugm-3,4,R,ugm-3,4,R,ugm-3
17-01-2010,06:00,1,R,ugm-3,8,R,ugm-3,10,R,ugm-3
17-01-2010,07:00,4,R,ugm-3,25,R,ugm-3,31,R,ugm-3
17-01-2010,08:00,8,R,ugm-3,50,R,ugm-3,61,R,ugm-3
17-01-2010,09:00,9,R,ugm-3,42,R,ugm-3,55,R,ugm-3
17-01-2010,10:00,30,R,ugm-3,53,R,ugm-3,99,R,ugm-3
17-01-2010,11:00,6,R,ugm-3,23,R,ugm-3,32,R,ugm-3
17-01-2010,12:00,1,R,ugm-3,13,R,ugm-3,15,R,ugm-3
17-01-2010,13:00,3,R,ugm-3,17,R,ugm-3,21,R,ugm-3
17-01-2010,14:00,1,R,ugm-3,6,R,ugm-3,8,R,ugm-3
17-01-2010,15:00,1,R,ugm-3,10,R,ugm-3,11,R,ugm-3
17-01-2010,16:00,0,R,ugm-3,11,R,ugm-3,11,R,ugm-3
17-01-2010,17:00,1,R,ugm-3,13,R,ugm-3,15,R,ugm-3
17-01-2010,18:00,1,R,ugm-3,15,R,ugm-3,17,R,ugm-3
17-01-2010,19:00,1,R,ugm-3,13,R,ugm-3,15,R,ugm-3
17-01-2010,20:00,0,R,ugm-3,8,R,ugm-3,8,R,ugm-3
17-01-2010,21:00,0,R,ugm-3,6,R,ugm-3,6,R,ugm-3
17-01-2010,22:00,0,R,ugm-3,4,R,ugm-3,4,R,ugm-3
17-01-2010,23:00,0,R,ugm-3,2,R,ugm-3,2,R,ugm-3
17-01-2010,24:00,0,R,ugm-3,0,R,ugm-3,0,R,ugm-3
18-01-2010,01:00,0,R,ugm-3,2,R,ugm-3,2,R,ugm-3
18-01-2010,02:00,0,R,ugm-3,0,R,ugm-3,0,R,ugm-3
18-01-2010,03:00,1,R,ugm-3,4,R,ugm-3,6,R,ugm-3
18-01-2010,04:00,0,R,ugm-3,4,R,ugm-3,4,R,ugm-3
18-01-2010,05:00,0,R,ugm-3,4,R,ugm-3,4,R,ugm-3
18-01-2010,06:00,0,R,ugm-3,11,R,ugm-3,11,R,ugm-3
18-01-2010,07:00,3,R,ugm-3,34,R,ugm-3,38,R,ugm-3
18-01-2010,08:00,3,R,ugm-3,46,R,ugm-3,50,R,ugm-3
18-01-2010,09:00,8,R,ugm-3,46,R,ugm-3,57,R,ugm-3
18-01-2010,10:00,36,R,ugm-3,53,R,ugm-3,109,R,ugm-3
18-01-2010,11:00,19,R,ugm-3,44,R,ugm-3,73,R,ugm-3
18-01-2010,12:00,13,R,ugm-3,34,R,ugm-3,53,R,ugm-3
18-01-2010,13:00,8,R,ugm-3,27,R,ugm-3,38,R,ugm-3
18-01-2010,14:00,9,R,ugm-3,32,R,ugm-3,46,R,ugm-3
18-01-2010,15:00,10,R,ugm-3,42,R,ugm-3,57,R,ugm-3
18-01-2010,16:00,24,R,ugm-3,63,R,ugm-3,99,R,ugm-3
18-01-2010,17:00,56,R,ugm-3,73,R,ugm-3,159,R,ugm-3
18-01-2010,18:00,106,R,ugm-3,74,R,ugm-3,237,R,ugm-3
18-01-2010,19:00,110,R,ugm-3,76,R,ugm-3,244,R,ugm-3
18-01-2010,20:00,169,R,ugm-3,82,R,ugm-3,340,R,ugm-3
18-01-2010,21:00,243,R,ugm-3,96,R,ugm-3,466,R,ugm-3
18-01-2010,22:00,263,R,ugm-3,92,R,ugm-3,493,R,ugm-3
18-01-2010,23:00,234,R,ugm-3,76,R,ugm-3,434,R,ugm-3
18-01-2010,24:00,235,R,ugm-3,73,R,ugm-3,432,R,ugm-3
19-01-2010,01:00,181,R,ugm-3,61,R,ugm-3,338,R,ugm-3
19-01-2010,02:00,98,R,ugm-3,50,R,ugm-3,199,R,ugm-3
19-01-2010,03:00,68,R,ugm-3,44,R,ugm-3,147,R,ugm-3
19-01-2010,04:00,43,R,ugm-3,38,R,ugm-3,103,R,ugm-3
19-01-2010,05:00,41,R,ugm-3,38,R,ugm-3,101,R,ugm-3
19-01-2010,06:00,60,R,ugm-3,42,R,ugm-3,134,R,ugm-3
19-01-2010,07:00,64,R,ugm-3,44,R,ugm-3,141,R,ugm-3
19-01-2010,08:00,90,R,ugm-3,52,R,ugm-3,189,R,ugm-3
19-01-2010,09:00,163,R,ugm-3,65,R,ugm-3,313,R,ugm-3
19-01-2010,10:00,114,R,ugm-3,59,R,ugm-3,233,R,ugm-3
19-01-2010,11:00,43,R,ugm-3,55,R,ugm-3,120,R,ugm-3
19-01-2010,12:00,26,R,ugm-3,46,R,ugm-3,86,R,ugm-3
19-01-2010,13:00,15,R,ugm-3,36,R,ugm-3,59,R,ugm-3
19-01-2010,14:00,15,R,ugm-3,36,R,ugm-3,59,R,ugm-3
19-01-2010,15:00,13,R,ugm-3,36,R,ugm-3,55,R,ugm-3
19-01-2010,16:00,9,R,ugm-3,31,R,ugm-3,44,R,ugm-3
19-01-2010,17:00,10,R,ugm-3,34,R,ugm-3,50,R,ugm-3
19-01-2010,18:00,9,R,ugm-3,34,R,ugm-3,48,R,ugm-3
19-01-2010,19:00,13,R,ugm-3,38,R,ugm-3,57,R,ugm-3
19-01-2010,20:00,10,R,ugm-3,36,R,ugm-3,52,R,ugm-3
19-01-2010,21:00,5,R,ugm-3,32,R,ugm-3,40,R,ugm-3
19-01-2010,22:00,5,R,ugm-3,27,R,ugm-3,34,R,ugm-3
19-01-2010,23:00,8,R,ugm-3,27,R,ugm-3,38,R,ugm-3
19-01-2010,24:00,5,R,ugm-3,21,R,ugm-3,29,R,ugm-3
20-01-2010,01:00,4,R,ugm-3,25,R,ugm-3,31,R,ugm-3
20-01-2010,02:00,3,R,ugm-3,19,R,ugm-3,23,R,ugm-3
20-01-2010,03:00,8,R,ugm-3,27,R,ugm-3,38,R,ugm-3
20-01-2010,04:00,14,R,ugm-3,27,R,ugm-3,48,R,ugm-3
20-01-2010,05:00,15,R,ugm-3,27,R,ugm-3,50,R,ugm-3
20-01-2010,06:00,8,R,ugm-3,19,R,ugm-3,31,R,ugm-3
20-01-2010,07:00,6,R,ugm-3,17,R,ugm-3,27,R,ugm-3
20-01-2010,08:00,13,R,ugm-3,31,R,ugm-3,50,R,ugm-3
20-01-2010,09:00,15,R,ugm-3,34,R,ugm-3,57,R,ugm-3
20-01-2010,10:00,14,R,ugm-3,31,R,ugm-3,52,R,ugm-3
20-01-2010,11:00,13,R,ugm-3,27,R,ugm-3,46,R,ugm-3
20-01-2010,12:00,13,R,ugm-3,34,R,ugm-3,53,R,ugm-3
20-01-2010,13:00,15,R,ugm-3,34,R,ugm-3,57,R,ugm-3
20-01-2010,14:00,14,R,ugm-3,32,R,ugm-3,53,R,ugm-3
20-01-2010,15:00,9,R,ugm-3,27,R,ugm-3,40,R,ugm-3
20-01-2010,16:00,9,R,ugm-3,32,R,ugm-3,46,R,ugm-3
20-01-2010,17:00,9,R,ugm-3,34,R,ugm-3,48,R,ugm-3
20-01-2010,18:00,4,R,ugm-3,34,R,ugm-3,40,R,ugm-3
20-01-2010,19:00,4,R,ugm-3,31,R,ugm-3,36,R,ugm-3
20-01-2010,20:00,3,R,ugm-3,27,R,ugm-3,31,R,ugm-3
20-01-2010,21:00,5,R,ugm-3,25,R,ugm-3,32,R,ugm-3
20-01-2010,22:00,3,R,ugm-3,21,R,ugm-3,25,R,ugm-3
20-01-2010,23:00,1,R,ugm-3,21,R,ugm-3,23,R,ugm-3
20-01-2010,24:00,3,R,ugm-3,17,R,ugm-3,21,R,ugm-3
21-01-2010,01:00,3,R,ugm-3,19,R,ugm-3,23,R,ugm-3
21-01-2010,02:00,4,R,ugm-3,23,R,ugm-3,29,R,ugm-3
21-01-2010,03:00,3,R,ugm-3,25,R,ugm-3,29,R,ugm-3
21-01-2010,04:00,1,R,ugm-3,21,R,ugm-3,23,R,ugm-3
21-01-2010,05:00,3,R,ugm-3,27,R,ugm-3,31,R,ugm-3
21-01-2010,06:00,4,R,ugm-3,34,R,ugm-3,40,R,ugm-3
21-01-2010,07:00,6,R,ugm-3,36,R,ugm-3,46,R,ugm-3
21-01-2010,08:00,11,R,ugm-3,44,R,ugm-3,61,R,ugm-3
21-01-2010,09:00,10,R,ugm-3,36,R,ugm-3,52,R,ugm-3